Location: Newark
(51.3318°N, 0.0053°E)
Time: 06:28:53
(UTC+00:00)

ONEWEB-0421 - Pass Details

Date: 03 June 2024
Orbit: 1188 x 1191 km, 87.9° (Epoch: 20 June)

Event Time Altitude Azimuth Distance (km) Brightness Sun altitude
Rises 01:33:45 0° 2° (N) 4,098 ? -13.4°
Reaches altitude 10° 01:36:56 10° 14° (NNE) 3,131 ? -13.2°
Maximum altitude 01:42:59 28° 71° (ENE) 2,088 ? -12.8°
Drops below altitude 10° 01:49:00 10° 127° (SE) 3,115 ? -12.4°
Sets 01:52:07 0° 139° (SE) 4,074 ? -12.2°
